When you browse on this site, cookies collect data to enhance your experience and personalize the content and advertising you see.
Visit our Privacy Policy to learn more. By continuing to use the site, you agree to this use of cookies and data.
  • In Deutschland
  • Länderverzeichnis
  • Für 7 Tage
  • Wassertemperatur
  • Wetterkarte
  • Widgets
  • user-avatar
    Anmelden

    Stündliche Wetter Djelfa

    Heute, 12 Dezember, Donnerstag

    Zeit Temperatur Niederschläge Wind Luftdruck Luftfeuchtigkeit
    00:00 +2°C° 0 mm 9 m/S 664 mmHg 87%
    01:00 +3°C° 0 mm 10 m/S 664 mmHg 87%
    02:00 +3°C° 0 mm 12 m/S 665 mmHg 88%
    03:00 +3°C° 0 mm 13 m/S 665 mmHg 88%
    04:00 +2°C° 0 mm 12 m/S 664 mmHg 89%
    05:00 +1°C° 0 mm 11 m/S 664 mmHg 91%
    06:00 +1°C° 0 mm 10 m/S 664 mmHg 92%
    07:00 +1°C° 0 mm 10 m/S 664 mmHg 84%
    08:00 +2°C° 0 mm 10 m/S 665 mmHg 76%
    09:00 +2°C° 0 mm 10 m/S 665 mmHg 67%
    10:00 +3°C° 0 mm 10 m/S 665 mmHg 59%
    11:00 +6°C° 0 mm 10 m/S 665 mmHg 51%
    12:00 +7°C° 0 mm 10 m/S 665 mmHg 42%
    13:00 +7°C° 0 mm 10 m/S 664 mmHg 49%
    14:00 +7°C° 0 mm 9 m/S 664 mmHg 56%
    15:00 +6°C° 0 mm 9 m/S 663 mmHg 63%
    16:00 +6°C° 0 mm 8 m/S 663 mmHg 66%
    17:00 +5°C° 0 mm 7 m/S 663 mmHg 70%
    18:00 +4°C° 0 mm 7 m/S 663 mmHg 73%
    19:00 +2°C° 0 mm 8 m/S 663 mmHg 75%
    20:00 +2°C° 0 mm 10 m/S 663 mmHg 78%
    21:00 +1°C° 0 mm 11 m/S 663 mmHg 81%
    22:00 0°C° 0 mm 12 m/S 663 mmHg 80%
    23:00 +1°C° 0 mm 13 m/S 663 mmHg 78%

    Morgen, 13 Dezember, Freitag

    Zeit Temperatur Niederschläge Wind Luftdruck Luftfeuchtigkeit
    00:00 +1°C° 0 mm 14 m/S 663 mmHg 77%
    01:00 +1°C° 0 mm 14 m/S 662 mmHg 80%
    02:00 +1°C° 0 mm 15 m/S 662 mmHg 82%
    03:00 +1°C° 0 mm 16 m/S 661 mmHg 85%
    04:00 +1°C° 0 mm 15 m/S 661 mmHg 86%
    05:00 +1°C° 0 mm 15 m/S 661 mmHg 87%
    06:00 +1°C° 0 mm 15 m/S 661 mmHg 89%
    07:00 +2°C° 0 mm 15 m/S 662 mmHg 88%
    08:00 +4°C° 0 mm 15 m/S 662 mmHg 87%
    09:00 +4°C° 0 mm 15 m/S 662 mmHg 85%
    10:00 +5°C° 0 mm 15 m/S 662 mmHg 84%
    11:00 +6°C° 0 mm 15 m/S 662 mmHg 83%
    12:00 +6°C° 0 mm 15 m/S 662 mmHg 81%
    13:00 +6°C° 0 mm 15 m/S 662 mmHg 80%
    14:00 +6°C° 0 mm 15 m/S 662 mmHg 79%
    15:00 +8°C° 0 mm 14 m/S 662 mmHg 77%
    16:00 +6°C° 0 mm 14 m/S 662 mmHg 80%
    17:00 +6°C° 0 mm 14 m/S 662 mmHg 82%
    18:00 +6°C° 0 mm 14 m/S 662 mmHg 85%
    19:00 +5°C° 0 mm 14 m/S 663 mmHg 87%
    20:00 +4°C° 0 mm 13 m/S 663 mmHg 89%
    21:00 +4°C° 0 mm 13 m/S 663 mmHg 91%
    22:00 +4°C° 0 mm 13 m/S 663 mmHg 90%
    23:00 +4°C° 0 mm 13 m/S 664 mmHg 89%

    übermorgen, 14 Dezember, Samstag

    Zeit Temperatur Niederschläge Wind Luftdruck Luftfeuchtigkeit
    00:00 +4°C° 0 mm 13 m/S 664 mmHg 88%
    01:00 +4°C° 0 mm 12 m/S 664 mmHg 90%
    02:00 +4°C° 0 mm 11 m/S 664 mmHg 92%
    03:00 +3°C° 0 mm 10 m/S 664 mmHg 94%
    04:00 +3°C° 0 mm 10 m/S 664 mmHg 93%
    05:00 +5°C° 0 mm 10 m/S 664 mmHg 91%
    06:00 +5°C° 0 mm 10 m/S 665 mmHg 90%
    07:00 +5°C° 0 mm 10 m/S 665 mmHg 86%
    08:00 +6°C° 0 mm 9 m/S 665 mmHg 82%
    09:00 +6°C° 0 mm 9 m/S 666 mmHg 79%
    10:00 +7°C° 0 mm 8 m/S 666 mmHg 71%
    11:00 +10°C° 0 mm 6 m/S 666 mmHg 64%
    12:00 +12°C° 0 mm 4 m/S 666 mmHg 56%
    13:00 +13°C° 0 mm 4 m/S 666 mmHg 54%
    14:00 +13°C° 0 mm 4 m/S 666 mmHg 52%
    15:00 +13°C° 0 mm 3 m/S 666 mmHg 50%
    16:00 +12°C° 0 mm 3 m/S 666 mmHg 55%
    17:00 +12°C° 0 mm 2 m/S 666 mmHg 61%
    18:00 +10°C° 0 mm 2 m/S 666 mmHg 66%
    19:00 +9°C° 0 mm 2 m/S 666 mmHg 67%
    20:00 +9°C° 0 mm 2 m/S 666 mmHg 68%
    21:00 +8°C° 0 mm 2 m/S 666 mmHg 68%
    22:00 +8°C° 0 mm 2 m/S 666 mmHg 67%
    23:00 +8°C° 0 mm 2 m/S 666 mmHg 66%

    15 Dezember, Sonntag

    Zeit Temperatur Niederschläge Wind Luftdruck Luftfeuchtigkeit
    00:00 +8°C° 0 mm 2 m/S 666 mmHg 65%
    01:00 +8°C° 0 mm 2 m/S 665 mmHg 65%
    02:00 +8°C° 0 mm 2 m/S 665 mmHg 66%
    03:00 +7°C° 0 mm 2 m/S 665 mmHg 67%
    04:00 +7°C° 0 mm 2 m/S 665 mmHg 67%
    05:00 +7°C° 0 mm 2 m/S 665 mmHg 67%
    06:00 +7°C° 0 mm 2 m/S 664 mmHg 68%
    07:00 +8°C° 0 mm 2 m/S 665 mmHg 60%
    08:00 +10°C° 0 mm 2 m/S 666 mmHg 52%
    09:00 +13°C° 0 mm 2 m/S 667 mmHg 45%
    10:00 +14°C° 0 mm 2 m/S 667 mmHg 41%
    11:00 +14°C° 0 mm 3 m/S 667 mmHg 37%
    12:00 +15°C° 0 mm 4 m/S 667 mmHg 33%
    13:00 +15°C° 0 mm 4 m/S 666 mmHg 34%
    14:00 +15°C° 0 mm 4 m/S 666 mmHg 34%
    15:00 +15°C° 0 mm 5 m/S 666 mmHg 35%
    16:00 +14°C° 0 mm 5 m/S 665 mmHg 39%
    17:00 +12°C° 0 mm 5 m/S 665 mmHg 43%
    18:00 +10°C° 0 mm 5 m/S 665 mmHg 47%
    19:00 +10°C° 0 mm 5 m/S 665 mmHg 49%
    20:00 +9°C° 0 mm 6 m/S 665 mmHg 50%
    21:00 +9°C° 0 mm 6 m/S 665 mmHg 52%
    22:00 +9°C° 0 mm 6 m/S 665 mmHg 55%
    23:00 +8°C° 0 mm 6 m/S 665 mmHg 57%

    16 Dezember, Montag

    Zeit Temperatur Niederschläge Wind Luftdruck Luftfeuchtigkeit
    00:00 +8°C° 0 mm 6 m/S 665 mmHg 59%
    01:00 +7°C° 0 mm 6 m/S 664 mmHg 61%
    02:00 +6°C° 0 mm 7 m/S 664 mmHg 63%
    03:00 +6°C° 0 mm 7 m/S 664 mmHg 65%
    04:00 +5°C° 0 mm 7 m/S 663 mmHg 66%
    05:00 +5°C° 0 mm 7 m/S 663 mmHg 67%
    06:00 +5°C° 0 mm 7 m/S 663 mmHg 69%
    07:00 +6°C° 0 mm 8 m/S 663 mmHg 67%
    08:00 +6°C° 0 mm 8 m/S 663 mmHg 65%
    09:00 +7°C° 0 mm 9 m/S 664 mmHg 63%
    10:00 +8°C° 0 mm 10 m/S 663 mmHg 61%
    11:00 +8°C° 0 mm 10 m/S 663 mmHg 59%
    12:00 +9°C° 0 mm 11 m/S 663 mmHg 57%
    13:00 +9°C° 0 mm 11 m/S 662 mmHg 56%
    14:00 +11°C° 0 mm 11 m/S 662 mmHg 55%
    15:00 +11°C° 0 mm 10 m/S 661 mmHg 54%
    16:00 +9°C° 0 mm 10 m/S 661 mmHg 56%
    17:00 +9°C° 0 mm 10 m/S 661 mmHg 58%
    18:00 +8°C° 0 mm 10 m/S 660 mmHg 60%
    19:00 +7°C° 0 mm 10 m/S 660 mmHg 61%
    20:00 +7°C° 0 mm 11 m/S 660 mmHg 62%
    21:00 +7°C° 0 mm 11 m/S 660 mmHg 63%
    22:00 +6°C° 0 mm 11 m/S 659 mmHg 64%
    23:00 +6°C° 0 mm 10 m/S 659 mmHg 65%

    17 Dezember, Dienstag

    Zeit Temperatur Niederschläge Wind Luftdruck Luftfeuchtigkeit
    00:00 +6°C° 0 mm 9 m/S 658 mmHg 66%
    01:00 +5°C° 0 mm 8 m/S 658 mmHg 68%
    02:00 +5°C° 0 mm 7 m/S 658 mmHg 70%
    03:00 +5°C° 0 mm 6 m/S 657 mmHg 72%
    04:00 +5°C° 0 mm 5 m/S 657 mmHg 73%
    05:00 +5°C° 0 mm 5 m/S 657 mmHg 74%
    06:00 +5°C° 0 mm 4 m/S 657 mmHg 75%
    07:00 +5°C° 0 mm 4 m/S 657 mmHg 71%
    08:00 +7°C° 0 mm 3 m/S 658 mmHg 67%
    09:00 +8°C° 0 mm 3 m/S 658 mmHg 63%
    10:00 +8°C° 0 mm 3 m/S 658 mmHg 64%
    11:00 +8°C° 0 mm 2 m/S 657 mmHg 64%
    12:00 +8°C° 0 mm 2 m/S 657 mmHg 65%
    13:00 +6°C° 0.7 mm 4 m/S 656 mmHg 70%
    14:00 +4°C° 0.7 mm 6 m/S 656 mmHg 76%
    15:00 +2°C° 0.7 mm 8 m/S 655 mmHg 82%
    16:00 +2°C° 5.4 mm 7 m/S 655 mmHg 87%
    17:00 0°C° 5.4 mm 7 m/S 655 mmHg 92%
    18:00 -1°C° 5.4 mm 7 m/S 655 mmHg 97%
    19:00 -1°C° 2.6 mm 6 m/S 655 mmHg 97%
    20:00 +1°C° 2.6 mm 5 m/S 656 mmHg 96%
    21:00 +2°C° 2.6 mm 5 m/S 656 mmHg 95%
    22:00 +2°C° 3.7 mm 5 m/S 656 mmHg 96%
    23:00 +2°C° 3.7 mm 6 m/S 656 mmHg 96%
    Mehr zeigen